George, South Africa

10:00 AM SAST on June 29, 2017 (GMT +0200)
George

Weather History for FAGG - April, 2013

Change the Weather History Date:

Monday, April 15, 2013

  Actual Average Record
Temperature  
Mean Temperature 61 °F -  
Max Temperature 74 °F 69 °F 86 °F (2005)
Min Temperature 48 °F 51 °F 46 °F (2001)
Degree Days  
Heating Degree Days 4    
Growing Degree Days 11 (Base 50)    
Moisture  
Dew Point 48 °F    
Average Humidity 61    
Maximum Humidity 94    
Minimum Humidity 38    
Precipitation  
Precipitation 0.00 in - - ()
Sea Level Pressure  
Sea Level Pressure 29.86 in    
Wind  
Wind Speed 4 mph ()    
Max Wind Speed 10 mph    
Max Gust Speed -    
Visibility 11.2 miles    
Events Fog    
Averages and records for this station are not official NWS values.
T = Trace of Precipitation, MM = Missing Value Source: Averaged Metar Reports

Daily Weather History Graph

Daily Weather History Graph

Search for Another Location

Airport or City:

Trip Planner

Search our weather history database for the weather conditions in past years. The results will help you decide how hot, cold, wet, or windy it might be!

Date:

Astronomy

Apr. 15, 2013 Rise Set
Actual Time 6:53 AM SAST 6:07 PM SAST
Civil Twilight 6:27 AM SAST 6:32 PM SAST
Nautical Twilight 5:58 AM SAST 7:01 PM SAST
Astronomical Twilight 5:29 AM SAST 7:30 PM SAST
Moon 11:16 AM SAST (4/15) 9:41 PM SAST (4/15)
Length of Visible Light 12h 04m
Length of Day
11h 13m
Waxing Crescent, 22% of the Moon is Illuminated
Apr 15
Waxing Crescent
Apr 18
First Quarter
Apr 25
Full
May 2
Last Quarter
May 10
New

Hourly Weather History & Observations

Time (SAST) Temp. Dew Point Humidity Pressure Visibility Wind Dir Wind Speed Gust Speed Precip Events Conditions
12:00 AM 59.0 °F 41.0 °F 51% 29.95 in - Variable 1.2 mph - N/A   Clear
1:00 AM 57.2 °F 41.0 °F 55% 29.95 in - NE 4.6 mph - N/A   Clear
2:00 AM 56 °F 40 °F 44% 29.94 in 37 mi NW 4.6 mph - -  
2:00 AM 55.4 °F 41.0 °F 58% 29.92 in - NW 4.6 mph - N/A   Clear
3:00 AM 57.2 °F 39.2 °F 51% 29.92 in - NNW 5.8 mph - N/A   Clear
4:00 AM 55.4 °F 39.2 °F 54% 29.92 in - NNW 3.5 mph - N/A   Clear
5:00 AM 54 °F 39 °F 45% 29.91 in 12 mi NNE 2.3 mph - -  
5:00 AM 53.6 °F 39.2 °F 58% 29.89 in - NNE 2.3 mph - N/A   Clear
6:00 AM 51.8 °F 39.2 °F 62% 29.92 in - NW 4.6 mph - N/A   Clear
7:00 AM 50.0 °F 39.2 °F 66% 29.89 in - ENE 6.9 mph - N/A   Clear
8:00 AM 57 °F 43 °F 49% 29.90 in 12 mi SE 4.6 mph - -   Clear
8:00 AM 57.2 °F 42.8 °F 59% 29.89 in - SE 3.5 mph - N/A   Clear
9:00 AM 57.2 °F 50.0 °F 77% 29.92 in 6.2 mi NW 3.5 mph - N/A   Scattered Clouds
10:00 AM 64.4 °F 51.8 °F 64% 29.92 in - East 4.6 mph - N/A   Clear
11:00 AM 68 °F 57 °F 59% 29.90 in 12 mi SSE 6.9 mph - -   Clear
11:00 AM 68.0 °F 57.2 °F 68% 29.89 in - SSE 5.8 mph - N/A   Clear
12:00 PM 71.6 °F 55.4 °F 57% 29.86 in - South 3.5 mph - N/A   Clear
1:00 PM 73.4 °F 53.6 °F 50% 29.86 in - North - - N/A   Clear
2:00 PM 73 °F 57 °F 47% 29.82 in 12 mi SSE 9.2 mph - -   Clear
2:00 PM 73.4 °F 57.2 °F 57% 29.80 in - SSE 9.2 mph - N/A   Clear
3:00 PM 71.6 °F 53.6 °F 53% 29.80 in - SE 9.2 mph - N/A   Clear
4:00 PM 71.6 °F 44.6 °F 38% 29.80 in - SE 9.2 mph - N/A   Clear
5:00 PM 67 °F 49 °F 42% 29.81 in 12 mi East 6.9 mph - -   Partly Cloudy
5:00 PM 66.2 °F 48.2 °F 52% 29.80 in - ESE 6.9 mph - N/A   Clear
6:00 PM 62.6 °F 51.8 °F 68% 29.77 in - East 6.9 mph - N/A   Clear
7:00 PM 60.8 °F 53.6 °F 77% 29.77 in - East 3.5 mph - N/A   Clear
8:00 PM 58 °F 54 °F 81% 29.77 in 12 mi NE 2.3 mph - -   Scattered Clouds
8:00 PM 57.2 °F 53.6 °F 88% 29.77 in - NE 2.3 mph - N/A   Clear
9:00 PM 53.6 °F 50.0 °F 88% 29.74 in - West 4.6 mph - N/A   Clear
10:00 PM 53.6 °F 51.8 °F 94% 29.77 in - West 10.4 mph - N/A Fog Fog
11:00 PM 57.2 °F 55.4 °F 94% 29.77 in - WNW 5.8 mph - N/A   Overcast